Time,TemperatureF,DewpointF,PressureIn,WindDirection,WindDirectionDegrees,WindSpeedMPH,WindSpeedGustMPH,Humidity,HourlyPrecipIn,Conditions,Clouds,dailyrainin,SolarRadiationWatts/m^2,SoftwareType,DateUTC
2013-06-03 00:01:00,71.0,68.0,-100.00,North,9,1.0,2.0,90,0.00,,,0.03,69.000000,,2013-06-03 00:01:00,
2013-06-03 00:32:00,70.0,67.0,-100.00,NNE,19,1.0,3.0,91,0.00,,,0.03,21.000000,,2013-06-03 00:32:00,
2013-06-03 00:42:00,70.0,67.0,-100.00,NNE,19,1.0,3.0,91,0.00,,,0.03,21.000000,,2013-06-03 00:42:00,
2013-06-03 00:52:00,70.0,67.0,-100.00,NNE,19,1.0,3.0,91,0.00,,,0.03,21.000000,,2013-06-03 00:52:00,
2013-06-03 01:01:00,70.0,67.0,-100.00,NNE,19,1.0,3.0,91,0.00,,,0.03,21.000000,,2013-06-03 01:01:00,
2013-06-03 01:32:00,67.0,65.0,-100.00,North,3,1.0,2.0,94,0.00,,,0.03,2.000000,,2013-06-03 01:32:00,
2013-06-03 01:42:00,67.0,65.0,-100.00,North,3,1.0,2.0,94,0.00,,,0.03,2.000000,,2013-06-03 01:42:00,
2013-06-03 01:52:00,67.0,65.0,-100.00,North,3,1.0,2.0,94,0.00,,,0.03,2.000000,,2013-06-03 01:52:00,
2013-06-03 02:02:00,67.0,65.0,-100.00,North,3,1.0,2.0,94,0.00,,,0.03,2.000000,,2013-06-03 02:02:00,
2013-06-03 02:32:00,67.0,65.0,-100.00,NNE,23,2.0,3.0,93,0.00,,,0.03,0.000000,,2013-06-03 02:32:00,
2013-06-03 02:42:00,67.0,65.0,-100.00,NNE,23,2.0,3.0,93,0.00,,,0.03,0.000000,,2013-06-03 02:42:00,
2013-06-03 02:52:00,67.0,65.0,-100.00,NNE,23,2.0,3.0,93,0.00,,,0.03,0.000000,,2013-06-03 02:52:00,
2013-06-03 03:02:00,67.0,65.0,-100.00,NNE,23,2.0,3.0,93,0.00,,,0.03,0.000000,,2013-06-03 03:02:00,
2013-06-03 03:33:00,66.0,64.0,-100.00,NNW,339,1.0,2.0,94,0.00,,,0.03,0.000000,,2013-06-03 03:33:00,
2013-06-03 03:43:00,66.0,64.0,-100.00,NNW,339,1.0,2.0,94,0.00,,,0.03,0.000000,,2013-06-03 03:43:00,
2013-06-03 03:53:00,66.0,64.0,-100.00,NNW,339,1.0,2.0,94,0.00,,,0.03,0.000000,,2013-06-03 03:53:00,
2013-06-03 04:03:00,66.0,64.0,-100.00,NNW,339,1.0,2.0,94,0.00,,,0.03,0.000000,,2013-06-03 04:03:00,
2013-06-03 04:33:00,66.0,65.0,-100.00,NNW,327,1.0,2.0,95,0.00,,,0.03,0.000000,,2013-06-03 04:33:00,
2013-06-03 04:42:00,66.0,65.0,-100.00,NNW,327,1.0,2.0,95,0.00,,,0.03,0.000000,,2013-06-03 04:42:00,
2013-06-03 04:53:00,66.0,65.0,-100.00,NNW,327,1.0,2.0,95,0.00,,,0.03,0.000000,,2013-06-03 04:53:00,
2013-06-03 05:02:00,66.0,65.0,-100.00,NNW,327,1.0,2.0,95,0.00,,,0.03,0.000000,,2013-06-03 05:02:00,
2013-06-03 05:32:00,66.0,65.0,-100.00,North,7,1.0,2.0,95,0.00,,,0.03,0.000000,,2013-06-03 05:32:00,
2013-06-03 05:43:00,66.0,65.0,-100.00,North,7,1.0,2.0,95,0.00,,,0.03,0.000000,,2013-06-03 05:43:00,
2013-06-03 05:52:00,66.0,65.0,-100.00,North,7,1.0,2.0,95,0.00,,,0.03,0.000000,,2013-06-03 05:52:00,
2013-06-03 06:02:00,66.0,65.0,-100.00,North,7,1.0,2.0,95,0.00,,,0.03,0.000000,,2013-06-03 06:02:00,
2013-06-03 06:32:00,65.0,64.0,-100.00,WNW,292,0.0,2.0,95,0.00,,,0.03,0.000000,,2013-06-03 06:32:00,
2013-06-03 06:42:00,65.0,64.0,-100.00,WNW,292,0.0,2.0,95,0.00,,,0.03,0.000000,,2013-06-03 06:42:00,
2013-06-03 06:53:00,65.0,64.0,-100.00,WNW,292,0.0,2.0,95,0.00,,,0.03,0.000000,,2013-06-03 06:53:00,
2013-06-03 07:02:00,65.0,64.0,-100.00,WNW,292,0.0,2.0,95,0.00,,,0.03,0.000000,,2013-06-03 07:02:00,
2013-06-03 07:32:00,65.0,64.0,-100.00,NNE,22,0.0,1.0,95,0.00,,,0.03,0.000000,,2013-06-03 07:32:00,
2013-06-03 07:42:00,65.0,64.0,-100.00,NNE,22,0.0,1.0,95,0.00,,,0.03,0.000000,,2013-06-03 07:42:00,
2013-06-03 07:52:00,65.0,64.0,-100.00,NNE,22,0.0,1.0,95,0.00,,,0.03,0.000000,,2013-06-03 07:52:00,
2013-06-03 08:02:00,65.0,64.0,-100.00,NNE,22,0.0,1.0,95,0.00,,,0.03,0.000000,,2013-06-03 08:02:00,
2013-06-03 08:32:00,63.0,62.0,-100.00,NNW,339,0.0,1.0,96,0.00,,,0.03,0.000000,,2013-06-03 08:32:00,
2013-06-03 08:42:00,63.0,62.0,-100.00,NNW,339,0.0,1.0,96,0.00,,,0.03,0.000000,,2013-06-03 08:42:00,
2013-06-03 08:52:00,63.0,62.0,-100.00,NNW,339,0.0,1.0,96,0.00,,,0.03,0.000000,,2013-06-03 08:52:00,
2013-06-03 09:02:00,63.0,62.0,-100.00,NNW,339,0.0,1.0,96,0.00,,,0.03,0.000000,,2013-06-03 09:02:00,
2013-06-03 09:33:00,63.0,62.0,-100.00,WSW,251,1.0,2.0,96,0.00,,,0.03,0.000000,,2013-06-03 09:33:00,
2013-06-03 09:43:00,63.0,62.0,-100.00,WSW,251,1.0,2.0,96,0.00,,,0.03,0.000000,,2013-06-03 09:43:00,
2013-06-03 09:53:00,63.0,62.0,-100.00,WSW,251,1.0,2.0,96,0.00,,,0.03,0.000000,,2013-06-03 09:53:00,
2013-06-03 10:03:00,63.0,62.0,-100.00,WSW,251,1.0,2.0,96,0.00,,,0.03,0.000000,,2013-06-03 10:03:00,
2013-06-03 10:33:00,62.0,61.0,-100.00,NNW,345,0.0,2.0,96,0.00,,,0.03,0.000000,,2013-06-03 10:33:00,
2013-06-03 10:42:00,62.0,61.0,-100.00,NNW,345,0.0,2.0,96,0.00,,,0.03,0.000000,,2013-06-03 10:42:00,
2013-06-03 10:53:00,62.0,61.0,-100.00,NNW,345,0.0,2.0,96,0.00,,,0.03,0.000000,,2013-06-03 10:53:00,
2013-06-03 11:02:00,62.0,61.0,-100.00,NNW,345,0.0,2.0,96,0.00,,,0.03,0.000000,,2013-06-03 11:02:00,
2013-06-03 11:32:00,63.0,62.0,-100.00,SSW,192,1.0,2.0,97,0.00,,,0.03,14.000000,,2013-06-03 11:32:00,
2013-06-03 11:42:00,63.0,62.0,-100.00,SSW,192,1.0,2.0,97,0.00,,,0.03,14.000000,,2013-06-03 11:42:00,
2013-06-03 11:52:00,63.0,62.0,-100.00,SSW,192,1.0,2.0,97,0.00,,,0.03,14.000000,,2013-06-03 11:52:00,
2013-06-03 12:02:00,63.0,62.0,-100.00,SSW,192,1.0,2.0,97,0.00,,,0.03,14.000000,,2013-06-03 12:02:00,
2013-06-03 12:32:00,65.0,64.0,-100.00,South,172,1.0,2.0,97,0.00,,,0.03,51.000000,,2013-06-03 12:32:00,
2013-06-03 12:42:00,65.0,64.0,-100.00,South,172,1.0,2.0,97,0.00,,,0.03,51.000000,,2013-06-03 12:42:00,
2013-06-03 12:52:00,65.0,64.0,-100.00,South,172,1.0,2.0,97,0.00,,,0.03,51.000000,,2013-06-03 12:52:00,
2013-06-03 13:02:00,65.0,64.0,-100.00,South,172,1.0,2.0,97,0.00,,,0.03,51.000000,,2013-06-03 13:02:00,
2013-06-03 13:33:00,69.0,65.0,-100.00,SSE,164,1.0,2.0,88,0.00,,,0.03,157.000000,,2013-06-03 13:33:00,
2013-06-03 13:43:00,69.0,65.0,-100.00,SSE,164,1.0,2.0,88,0.00,,,0.03,157.000000,,2013-06-03 13:43:00,
2013-06-03 13:53:00,69.0,65.0,-100.00,SSE,164,1.0,2.0,88,0.00,,,0.03,157.000000,,2013-06-03 13:53:00,
2013-06-03 14:02:00,69.0,65.0,-100.00,SSE,164,1.0,2.0,88,0.00,,,0.03,157.000000,,2013-06-03 14:02:00,
2013-06-03 14:33:00,75.0,63.0,-100.00,SW,217,2.0,5.0,67,0.00,,,0.03,374.000000,,2013-06-03 14:33:00,
2013-06-03 14:42:00,75.0,63.0,-100.00,SW,217,2.0,5.0,67,0.00,,,0.03,374.000000,,2013-06-03 14:42:00,
2013-06-03 14:52:00,75.0,63.0,-100.00,SW,217,2.0,5.0,67,0.00,,,0.03,374.000000,,2013-06-03 14:52:00,
2013-06-03 15:02:00,75.0,63.0,-100.00,SW,217,2.0,5.0,67,0.00,,,0.03,374.000000,,2013-06-03 15:02:00,
2013-06-03 15:33:00,78.0,62.0,-100.00,SSE,167,2.0,6.0,59,0.00,,,0.03,539.000000,,2013-06-03 15:33:00,
2013-06-03 15:43:00,78.0,62.0,-100.00,SSE,167,2.0,6.0,59,0.00,,,0.03,539.000000,,2013-06-03 15:43:00,
2013-06-03 15:53:00,78.0,62.0,-100.00,SSE,167,2.0,6.0,59,0.00,,,0.03,539.000000,,2013-06-03 15:53:00,
2013-06-03 16:03:00,78.0,62.0,-100.00,SSE,167,2.0,6.0,59,0.00,,,0.03,539.000000,,2013-06-03 16:03:00,
2013-06-03 16:33:00,82.0,63.0,-100.00,WSW,248,2.0,7.0,53,0.00,,,0.03,779.000000,,2013-06-03 16:33:00,
2013-06-03 16:42:00,82.0,63.0,-100.00,WSW,248,2.0,7.0,53,0.00,,,0.03,779.000000,,2013-06-03 16:42:00,
2013-06-03 16:53:00,82.0,63.0,-100.00,WSW,248,2.0,7.0,53,0.00,,,0.03,779.000000,,2013-06-03 16:53:00,
2013-06-03 17:02:00,82.0,63.0,-100.00,WSW,248,2.0,7.0,53,0.00,,,0.03,779.000000,,2013-06-03 17:02:00,
2013-06-03 17:33:00,83.0,62.0,-100.00,WSW,255,2.0,6.0,50,0.00,,,0.03,713.000000,,2013-06-03 17:33:00,
2013-06-03 17:42:00,83.0,62.0,-100.00,WSW,255,2.0,6.0,50,0.00,,,0.03,713.000000,,2013-06-03 17:42:00,
2013-06-03 17:52:00,83.0,62.0,-100.00,WSW,255,2.0,6.0,50,0.00,,,0.03,713.000000,,2013-06-03 17:52:00,
2013-06-03 18:02:00,83.0,62.0,-100.00,WSW,255,2.0,6.0,50,0.00,,,0.03,713.000000,,2013-06-03 18:02:00,
2013-06-03 18:32:00,77.0,64.0,-100.00,North,352,1.0,9.0,64,0.00,,,0.02,285.000000,,2013-06-03 18:32:00,
2013-06-03 18:43:00,77.0,64.0,-100.00,North,352,1.0,9.0,64,0.00,,,0.02,285.000000,,2013-06-03 18:43:00,
2013-06-03 18:53:00,77.0,64.0,-100.00,North,352,1.0,9.0,64,0.00,,,0.02,285.000000,,2013-06-03 18:53:00,
2013-06-03 19:03:00,77.0,64.0,-100.00,North,352,1.0,9.0,64,0.00,,,0.02,285.000000,,2013-06-03 19:03:00,
2013-06-03 19:33:00,69.0,63.0,-100.00,North,353,2.0,9.0,81,0.01,,,0.02,119.000000,,2013-06-03 19:33:00,
2013-06-03 19:42:00,69.0,63.0,-100.00,North,353,2.0,9.0,81,0.01,,,0.02,119.000000,,2013-06-03 19:42:00,
2013-06-03 19:53:00,69.0,63.0,-100.00,North,353,2.0,9.0,81,0.01,,,0.02,119.000000,,2013-06-03 19:53:00,
2013-06-03 20:02:00,69.0,63.0,-100.00,North,353,2.0,9.0,81,0.01,,,0.02,119.000000,,2013-06-03 20:02:00,
2013-06-03 20:33:00,71.0,64.0,-100.00,NE,49,1.0,4.0,78,0.00,,,0.02,176.000000,,2013-06-03 20:33:00,
2013-06-03 20:43:00,71.0,64.0,-100.00,NE,49,1.0,4.0,78,0.00,,,0.02,176.000000,,2013-06-03 20:43:00,
2013-06-03 20:52:00,71.0,64.0,-100.00,NE,49,1.0,4.0,78,0.00,,,0.02,176.000000,,2013-06-03 20:52:00,
2013-06-03 21:02:00,71.0,64.0,-100.00,NE,49,1.0,4.0,78,0.00,,,0.02,176.000000,,2013-06-03 21:02:00,
2013-06-03 21:33:00,78.0,59.0,-100.00,East,84,2.0,10.0,53,0.00,,,0.02,465.000000,,2013-06-03 21:33:00,
2013-06-03 21:43:00,78.0,59.0,-100.00,East,84,2.0,10.0,53,0.00,,,0.02,465.000000,,2013-06-03 21:43:00,
2013-06-03 21:53:00,78.0,59.0,-100.00,East,84,2.0,10.0,53,0.00,,,0.02,465.000000,,2013-06-03 21:53:00,
2013-06-03 22:03:00,78.0,59.0,-100.00,East,84,2.0,10.0,53,0.00,,,0.02,465.000000,,2013-06-03 22:03:00,
2013-06-03 22:33:00,75.0,60.0,-100.00,SSW,213,2.0,7.0,59,0.00,,,0.01,118.000000,,2013-06-03 22:33:00,
2013-06-03 22:42:00,75.0,60.0,-100.00,SSW,213,2.0,7.0,59,0.00,,,0.01,118.000000,,2013-06-03 22:42:00,
2013-06-03 22:53:00,75.0,60.0,-100.00,SSW,213,2.0,7.0,59,0.00,,,0.01,118.000000,,2013-06-03 22:53:00,
2013-06-03 23:02:00,75.0,60.0,-100.00,SSW,213,2.0,7.0,59,0.00,,,0.01,118.000000,,2013-06-03 23:02:00,
2013-06-03 23:32:00,71.0,60.0,-100.00,North,354,1.0,4.0,69,0.00,,,0.01,62.000000,,2013-06-03 23:32:00,
2013-06-03 23:42:00,71.0,60.0,-100.00,North,354,1.0,4.0,69,0.00,,,0.01,62.000000,,2013-06-03 23:42:00,
2013-06-03 23:52:00,71.0,60.0,-100.00,North,354,1.0,4.0,69,0.00,,,0.01,62.000000,,2013-06-03 23:52:00,